Regional Weather Roundup
Issued by NWS

Home | Current Version | Previous Version | Graphics & Text | Print | Product List | Glossary On
Versions: 1 2 3 4 5 6 7 8 9 10 11 12 13 14 15 16 17 18 19 20 21 22 23 24 25 26 27 28 29 30 31 32 33 34 35 36 37 38 39 40 41 42 43 44 45 46 47 48 49 50
386
ASUS45 KPSR 240610
RWRAZ

ARIZONA HOURLY REGIONAL WEATHER ROUNDUP
NATIONAL WEATHER SERVICE PHOENIX AZ
1100 PM MST WED AUG 23 2017

NOTE: FAIR INDICATES FEW OR NO CLOUDS BELOW 12,000 FEET WITH NO
SIGNIFICANT WEATHER AND/OR OBSTRUCTIONS TO VISIBILITY.

AZZ001>003-036-240700-
NORTHWEST ARIZONA

CITY           SKY/WX    TMP DP  RH WIND       PRES   REMARKS
KINGMAN        MOCLDY    72  60  66 SE13      29.98F
6HR MIN TEMP:  78; 6HR MAX TEMP:  97; 6HR PCP:  0.02;

$$

AZZ004>008-015-016-018-240700-
NORTH CENTRAL ARIZONA

CITY           SKY/WX    TMP DP  RH WIND       PRES   REMARKS
GRAND CANYON   MOCLDY    59  49  69 CALM      30.25S
6HR MIN TEMP:  59; 6HR MAX TEMP:  77; 6HR PCP: TRACE;

WILLIAMS       MOCLDY    66  48  52 SW7       30.25S
PRESCOTT       PTCLDY    74  56  53 S9        30.14R
6HR MIN TEMP:  72; 6HR MAX TEMP:  87;

FLAGSTAFF      MOCLDY    60  46  59 CALM      30.30R
6HR MIN TEMP:  60; 6HR MAX TEMP:  78;

PAYSON           N/A     63  59  88 E5        30.23S
PAGE           CLOUDY    83  38  20 S9        30.03R
6HR MIN TEMP:  83; 6HR MAX TEMP:  94;

$$

AZZ009>014-017-240700-
NORTHEAST ARIZONA

CITY           SKY/WX    TMP DP  RH WIND       PRES   REMARKS
WINSLOW        LGT RAIN  66  59  78 S12       30.20R
6HR MIN TEMP:  66; 6HR MAX TEMP:  81; 6HR PCP:  0.03;

SAINT JOHNS    CLOUDY    64  52  64 SE7       30.26R
6HR MIN TEMP:  64; 6HR MAX TEMP:  82; 6HR PCP: TRACE;

WINDOW ROCK    LGT RAIN  58  54  86 W8        30.39R
6HR MIN TEMP:  58; 6HR MAX TEMP:  76; 6HR PCP:  0.12;

SHOW LOW       CLOUDY    59  55  88 S7        30.28F
$$

AZZ540-542>544-546-548-240700-
GREATER PHOENIX AREA

CITY           SKY/WX    TMP DP  RH WIND       PRES   REMARKS
PHOENIX        TSTM      79  67  66 E25G33    29.90R
6HR MIN TEMP:  79; 6HR MAX TEMP: 105; 6HR PCP:  0.06;

BUCKEYE        CLEAR     86  59  39 E24G32    29.87R
LUKE AFB       MOCLDY    87  61  41 E20G26    29.87R
6HR MIN TEMP:  87; 6HR MAX TEMP: 106; 6HR PCP: TRACE;

SCOTTSDALE     LGT RAIN  79  63  57 SE14G28   29.91F
6HR MIN TEMP:  77; 6HR MAX TEMP: 103; 6HR PCP:  0.23;

MESA-GATEWAY   MOCLDY    82  61  47 SE10      29.94R
$$

AZZ539-553-240700-
SOUTHWEST MARICOPA COUNTY AND PINAL COUNTY

CITY           SKY/WX    TMP DP  RH WIND       PRES   REMARKS
CASA GRANDE    MOCLDY    80  62  54 SE9       29.93R
6HR MIN TEMP:  80; 6HR MAX TEMP:  89;

GILA BEND      CLEAR     81  65  58 SE18      29.82R
6HR MIN TEMP:  81; 6HR MAX TEMP:  98;

$$

AZZ503-504-507>509-240700-
SOUTHEAST ARIZONA

CITY           SKY/WX    TMP DP  RH WIND       PRES   REMARKS
TUCSON         MOCLDY    75  65  70 SE13      30.04F
6HR MIN TEMP:  72; 6HR MAX TEMP:  77; 6HR PCP:  0.09;

DAVIS-MONTHAN  MOCLDY    74  65  74 E14       30.03F
6HR MIN TEMP:  71; 6HR MAX TEMP:  75; 6HR PCP:  0.13;

NOGALES        PTCLDY    68  63  84 E7        30.13R
6HR MIN TEMP:  67; 6HR MAX TEMP:  73;

SIERRA VISTA   CLOUDY    64  63  94 SE9       30.21R
6HR MIN TEMP:  64; 6HR MAX TEMP:  73; 6HR PCP:  0.13;

DOUGLAS        CLOUDY    64  63  96 SE6       30.20S
6HR MIN TEMP:  64; 6HR MAX TEMP:  67; 6HR PCP:  0.30;

SAFFORD        CLOUDY    72  62  71 SE10      30.12S
6HR MIN TEMP:  70; 6HR MAX TEMP:  83; 6HR PCP:  0.03;

$$

AZZ532-240700-
SOUTHWEST ARIZONA

CITY           SKY/WX    TMP DP  RH WIND       PRES   REMARKS
YUMA           CLEAR     90  62  39 S7        29.74S
6HR MIN TEMP:  90; 6HR MAX TEMP: 106;

$$

CAZ041-043-047-048-061-525>527-560>570-240700-
SOUTHERN CALIFORNIA

CITY           SKY/WX    TMP DP  RH WIND       PRES   REMARKS
DOWNTOWN L.A.  CLOUDY    68  61  78 CALM      29.93S
6HR MIN TEMP:  68; 6HR MAX TEMP:  75;

L.A. AIRPORT   CLOUDY    66  61  84 W9        29.94R
6HR MIN TEMP:  66; 6HR MAX TEMP:  72;

SAN DIEGO      CLOUDY    68  60  75 N6        29.96S
6HR MIN TEMP:  67; 6HR MAX TEMP:  70;

BURBANK        MOCLDY    64  59  83 SE7       29.94R
6HR MIN TEMP:  64; 6HR MAX TEMP:  77;

ONTARIO        MOCLDY    65  60  84 W9        29.94R
6HR MIN TEMP:  65; 6HR MAX TEMP:  83;

RIVERSIDE      CLEAR     65  61  87 W7        29.94R
6HR MIN TEMP:  65; 6HR MAX TEMP:  83;

PALM SPRINGS   CLEAR     89  57  33 NW14      29.76R
6HR MIN TEMP:  89; 6HR MAX TEMP: 105;

EL CENTRO NAS  CLEAR     92  44  19 W14       29.74S
6HR MIN TEMP:  91; 6HR MAX TEMP: 108;

IMPERIAL       CLEAR     90  52  27 SW5       29.72S
6HR MIN TEMP:  87; 6HR MAX TEMP: 108;

BLYTHE         CLEAR     95  62  33 S15       29.74R
6HR MIN TEMP:  95; 6HR MAX TEMP: 107;

$$

NVZ020-UTZ003-240700-
SOUTHERN NEVADA-UTAH

CITY           SKY/WX    TMP DP  RH WIND       PRES   REMARKS
LAS VEGAS      MOCLDY    83  52  34 CALM      29.86R
6HR MIN TEMP:  83; 6HR MAX TEMP:  94;

SALT LAKE CITY PTCLDY    72  52  49 CALM      30.05R
6HR MIN TEMP:  71; 6HR MAX TEMP:  89;

$$

NMZ009-TXZ055-240700-
NEW MEXICO-WEST TEXAS

CITY           SKY/WX    TMP DP  RH WIND       PRES   REMARKS
ALBUQUERQUE    CLOUDY    70  52  52 S21G26    30.22R
6HR MIN TEMP:  69; 6HR MAX TEMP:  83; 6HR PCP: TRACE;

EL PASO        LGT RAIN  70  63  78 N13       30.15S
6HR MIN TEMP:  70; 6HR MAX TEMP:  80; 6HR PCP:  0.01;

$$


........................KEY........................
SKY/WX - SKY CONDITION/WEATHER
TMP    - TEMPERATURE IN FAHRENHEIT
DP     - DEW POINT IN FAHRENHEIT
RH     - RELATIVE HUMIDITY IN PERCENT
WIND   - DIRECTION AND SPEED IN MILES PER HOUR (MPH)
VRB    - VARIABLE WIND DIRECTION
PRES   - MEAN SEA LEVEL PRESSURE IN INCHES OF MERCURY
         F - FALLING PRESSURE   R - RISING PRESSURE
         S - STEADY PRESSURE
VSB    - VISIBILITY IN MILES
HX     - HEAT INDEX IN FAHRENHEIT
WCI    - WIND CHILL INDEX IN FAHRENHEIT
TC     - TEMPERATURE IN CELSIUS WHICH IS ALSO KNOWN AS
         TEMPERATURE IN CENTIGRADE
AFB    - AIR FORCE BASE
         LUKE AFB IS LUKE AIR FORCE BASE
         DAVIS-MONTHAN IS DAVIS-MONTHAN AIR FORCE BASE
NAS    - NAVAL AIR STATION
         EL CENTRO NAS IS EL CENTRO NAVAL AIR STATION
N/A    - NOT AVAILABLE





USA.gov is the U.S. government's official web portal to all federal, state and local government web resources and services.